Location: Pittman
(37.9557°N, 80.9209°W)
Time: 15:05:40
(UTC+00:00)

Envisat - Pass Details

Date: 19 April 2026
Orbit: 761 x 762 km, 98.4° (Epoch: 15 May)

Event Time Altitude Azimuth Distance (km) Brightness Sun altitude
Rises 08:48:55 0° 1° (N) 3,230 6.7 -21.2°
Reaches altitude 10° 08:51:26 10° 352° (N) 2,300 5.8 -20.8°
Maximum altitude 08:55:50 31° 291° (WNW) 1,320 3.9 -20.1°
Enters shadow 08:56:18 30° 281° (W) 1,335 3.9 -20.0°
